Location: Newark
(25.6108°S, 54.5803°W)
Time: 08:52:53
(UTC+00:00)

Tiros 1 - Pass Details

Date: 27 October 2020
Orbit: 630 x 664 km, 48.4° (Epoch: 29 November)

Event Time Altitude Azimuth Distance (km) Brightness Sun altitude
Rises 03:14:36 0° 235° (SW) 2,999 - -51.4°
Reaches altitude 10° 03:17:04 10° 242° (WSW) 2,077 - -51.5°
Maximum altitude 03:21:32 40° 311° (NW) 969 - -51.5°
Drops below altitude 10° 03:25:56 10° 20° (NNE) 2,037 - -51.5°
Sets 03:28:21 0° 27° (NNE) 2,934 - -51.4°
